FW7261 Weather Reports


time (UTC)temp
C
wind
direction
speed
KPH
gust
KPH
rain 1hr
cm
rain 24hr
cm
rain mn
cm
humidity
%
barometer
mb
20260505180113 16 230 4.8 12.9 0.00 0.13 0.13 81 1007.9
20260505175113 16 211 4.8 14.5 0.00 0.15 0.13 80 1007.7
20260505173113 16 245 4.8 11.3 0.00 0.15 0.13 78 1007.7
20260505172113 16 254 3.2 11.3 0.00 0.15 0.13 77 1007.6
20260505171113 17 222 1.6 14.5 0.00 0.15 0.13 77 1007.7
20260505170113 16 238 1.6 8.0 0.00 0.15 0.13 78 1007.8
20260505165113 16 237 4.8 14.5 0.00 0.18 0.13 78 1007.8
20260505164113 16 209 3.2 12.9 0.00 0.18 0.13 77 1007.8
20260505163113 16 239 4.8 16.1 0.00 0.18 0.13 77 1007.8
20260505162113 16 263 4.8 11.3 0.00 0.18 0.13 78 1007.7
20260505161113 16 261 1.6 9.7 0.00 0.18 0.13 80 1007.6
20260505153112 15 249 4.8 16.1 0.08 0.18 0.13 85 1007.8
20260505152112 14 243 4.8 12.9 0.10 0.18 0.13 86 1007.8
20260505151112 14 245 4.8 11.3 0.10 0.18 0.13 87 1007.9
20260505150112 15 254 1.6 8.0 0.10 0.18 0.13 87 1007.8
20260505140112 19 247 0.0 1.6 0.00 0.08 0.03 67 1007.3
20260505130111 18 360 0.0 1.6 0.00 0.08 0.03 73 1007.9
20260505124111 18 83 0.0 3.2 0.00 0.08 0.03 74 1008.0
20260505122110 17 234 1.6 4.8 0.00 0.08 0.03 76 1008.2
20260505120110 17 259 0.0 0.0 0.00 0.08 0.03 78 1008.4
20260505115110 16 248 0.0 1.6 0.00 0.08 0.03 78 1008.4
20260505114110 16 228 0.0 1.6 0.00 0.08 0.03 81 1008.5
20260505113110 16 271 0.0 1.6 0.00 0.08 0.03 80 1008.6
20260505112110 16 263 0.0 3.2 0.00 0.08 0.03 80 1008.7
20260505110110 16 256 0.0 0.0 0.00 0.08 0.03 81 1008.7
20260505101115 16 258 0.0 0.0 0.00 0.08 0.03 82 1008.8
20260505100114 15 258 0.0 1.6 0.00 0.08 0.03 82 1008.7
20260505095114 16 258 0.0 3.2 0.00 0.08 0.03 81 1008.8
20260505094114 15 254 0.0 0.0 0.00 0.08 0.03 83 1008.7
20260505092114 15 252 0.0 0.0 0.00 0.08 0.03 83 1008.9
20260505091114 15 252 0.0 0.0 0.00 0.08 0.03 84 1008.9
20260505085114 15 253 0.0 1.6 0.00 0.08 0.03 84 1009.1
20260505084113 15 62 0.0 1.6 0.00 0.08 0.03 84 1009.2
20260505083113 15 269 0.0 1.6 0.00 0.08 0.03 84 1009.3
20260505081113 15 265 0.0 0.0 0.00 0.08 0.03 84 1009.5
20260505080113 15 265 0.0 1.6 0.00 0.08 0.03 84 1009.5
20260505075113 15 265 0.0 1.6 0.00 0.08 0.03 85 1009.5
20260505074113 14 265 0.0 0.0 0.00 0.08 0.03 88 1009.7
20260505073113 13 265 0.0 3.2 0.00 0.08 0.03 88 1009.7
20260505070113 13 261 3.2 11.3 0.00 0.08 0.03 91 1009.9
20260505065112 12 261 1.6 4.8 0.00 0.08 0.03 91 1010.0
20260505064112 12 245 1.6 4.8 0.00 0.08 0.03 92 1010.0
20260505063112 12 249 0.0 1.6 0.00 0.08 0.03 92 1010.0
20260505062112 12 239 0.0 3.2 0.03 0.08 0.03 92 1010.1
20260505055112 12 239 0.0 1.6 0.03 0.08 0.03 93 1010.2
20260505054112 12 239 0.0 0.0 0.03 0.08 0.03 93 1010.2
20260505053112 12 276 0.0 1.6 0.03 0.08 0.03 93 1010.2
20260505052111 12 277 0.0 1.6 0.00 0.05 0.00 93 1010.1
20260505051111 12 279 0.0 1.6 0.00 0.05 0.00 93 1010.0
20260505050111 12 282 0.0 0.0 0.00 0.05 0.00 93 1010.1
20260505041111 11 282 0.0 0.0 0.00 0.05 0.00 93 1010.0
20260505040111 11 282 0.0 0.0 0.00 0.05 0.00 93 1010.1
20260505034111 11 282 0.0 0.0 0.00 0.05 0.00 93 1010.0
20260505032110 11 282 0.0 0.0 0.00 0.05 0.00 93 1009.9
20260505031110 11 282 0.0 0.0 0.00 0.05 0.00 93 1010.1
20260505030110 11 282 0.0 0.0 0.00 0.05 0.00 93 1010.3
20260505025110 11 282 0.0 0.0 0.00 0.05 0.00 93 1010.3
20260505024110 11 83 1.6 8.0 0.00 0.05 0.00 93 1010.3
20260505023110 11 75 0.0 0.0 0.00 0.05 0.00 93 1010.4
20260505022110 11 252 0.0 0.0 0.00 0.05 0.00 93 1010.6
20260505021110 11 252 0.0 0.0 0.00 0.05 0.00 93 1010.8
20260505020110 11 252 0.0 0.0 0.00 0.05 0.00 93 1010.8
20260505015110 11 252 0.0 0.0 0.00 0.05 0.00 93 1010.9
20260505014114 11 252 0.0 0.0 0.00 0.05 0.00 93 1011.0
20260505011114 11 252 0.0 0.0 0.00 0.05 0.00 93 1011.1
20260505005114 12 252 0.0 0.0 0.00 0.05 0.00 93 1011.4
20260505004114 12 252 0.0 0.0 0.00 0.05 0.00 93 1011.6
20260505003114 12 252 0.0 0.0 0.00 0.05 0.00 93 1011.7
20260505001114 12 252 0.0 0.0 0.00 0.05 0.00 93 1011.9
20260505000114 12 252 0.0 0.0 0.00 0.05 0.00 93 1011.9
20260504235113 12 252 0.0 0.0 0.00 0.05 0.00 93 1012.1
20260504233113 12 253 0.0 0.0 0.00 0.05 0.00 93 1012.4
20260504232113 12 253 0.0 0.0 0.00 0.05 0.00 93 1012.3
20260504231113 12 253 0.0 0.0 0.00 0.05 0.00 93 1012.3
20260504230113 12 252 0.0 0.0 0.00 0.05 0.00 93 1012.4
20260504225113 12 253 0.0 0.0 0.00 0.05 0.00 93 1012.5
20260504224113 12 249 0.0 0.0 0.00 0.05 0.00 93 1012.4
20260504223113 12 249 0.0 0.0 0.00 0.05 0.00 93 1012.4
20260504222113 12 249 0.0 0.0 0.00 0.05 0.00 92 1012.4
20260504221113 12 249 0.0 0.0 0.00 0.05 0.00 92 1012.4
20260504220112 12 249 0.0 0.0 0.00 0.05 0.00 92 1012.3
20260504215112 12 249 0.0 0.0 0.00 0.05 0.05 91 1012.5
20260504212112 13 249 0.0 0.0 0.00 0.05 0.05 91 1013.1
20260504211112 13 249 0.0 0.0 0.00 0.05 0.05 90 1013.2
20260504205112 13 249 0.0 0.0 0.00 0.05 0.05 90 1013.2
20260504204112 13 249 0.0 0.0 0.00 0.05 0.05 90 1013.3
20260504203112 14 45 0.0 0.0 0.00 0.05 0.05 90 1013.2
20260504202112 14 45 0.0 0.0 0.00 0.05 0.05 90 1013.2
20260504200112 14 46 0.0 0.0 0.00 0.05 0.05 89 1013.0
20260504195111 14 45 0.0 0.0 0.00 0.05 0.05 89 1013.0
20260504194111 14 45 0.0 0.0 0.00 0.05 0.05 89 1013.0
20260504191111 15 246 0.0 0.0 0.03 0.05 0.05 86 1012.8
20260504185111 15 246 0.0 0.0 0.03 0.05 0.05 86 1012.7
20260504184111 15 246 0.0 0.0 0.03 0.05 0.05 85 1012.7
20260504183111 15 246 0.0 0.0 0.05 0.05 0.05 85 1012.9
20260504182110 15 246 0.0 0.0 0.05 0.05 0.05 85 1012.8